,,PressureMeas_1m,,PRMeasQMR101_1,,RHStat155_1m_1,,SRMeasQMS101R_1m,,TAStat155_1m_1,,GenWind_1,,GenWind_1,
2019-04-13, 00:00:06,VALID,918.214,VALID,0.0,VALID,97.597,VALID,0.026,VALID,19.807,INVALID,360.0,VALID,0.0,
2019-04-13, 00:01:06,VALID,918.21,VALID,0.0,VALID,97.274,VALID,0.027,VALID,19.664,INVALID,360.0,VALID,0.0,
2019-04-13, 00:02:06,VALID,918.209,VALID,0.0,VALID,96.87,VALID,0.024,VALID,19.581,INVALID,360.0,VALID,0.0,
2019-04-13, 00:03:06,VALID,918.21,VALID,0.0,VALID,96.75,VALID,0.02,VALID,19.54,INVALID,360.0,VALID,0.0,
2019-04-13, 00:04:06,VALID,918.216,VALID,0.0,VALID,95.979,VALID,0.001,VALID,19.534,INVALID,360.0,VALID,0.0,
2019-04-13, 00:05:06,VALID,918.22,VALID,0.0,VALID,94.942,VALID,0.007,VALID,19.634,INVALID,360.0,VALID,0.0,
2019-04-13, 00:06:06,VALID,918.215,VALID,0.0,VALID,94.535,VALID,0.011,VALID,19.685,INVALID,360.0,VALID,0.0,
2019-04-13, 00:07:06,VALID,918.212,VALID,0.0,VALID,94.05,VALID,0.028,VALID,19.674,INVALID,360.0,VALID,0.0,
2019-04-13, 00:08:06,VALID,918.214,VALID,0.0,VALID,94.061,VALID,0.02,VALID,19.713,INVALID,360.0,VALID,0.0,
2019-04-13, 00:09:06,VALID,918.206,VALID,0.0,VALID,92.955,VALID,0.004,VALID,19.741,INVALID,360.0,VALID,0.0,
2019-04-13, 00:10:06,VALID,918.191,VALID,0.0,VALID,92.962,VALID,0.023,VALID,19.763,INVALID,360.0,VALID,0.0,
2019-04-13, 00:11:06,VALID,918.18,VALID,0.0,VALID,92.029,VALID,0.007,VALID,19.801,INVALID,360.0,VALID,0.0,
2019-04-13, 00:12:06,VALID,918.174,VALID,0.0,VALID,92.227,VALID,0.021,VALID,19.797,INVALID,360.0,VALID,0.0,
2019-04-13, 00:13:06,VALID,918.169,VALID,0.0,VALID,91.976,VALID,0.008,VALID,19.788,INVALID,360.0,VALID,0.0,
2019-04-13, 00:14:06,VALID,918.119,VALID,0.0,VALID,91.398,VALID,0.003,VALID,19.832,INVALID,360.0,VALID,0.0,
2019-04-13, 00:15:06,VALID,918.127,VALID,0.0,VALID,91.134,VALID,-0.011,VALID,19.889,INVALID,360.0,VALID,0.0,
2019-04-13, 00:16:06,VALID,918.108,VALID,0.0,VALID,91.085,VALID,-0.01,VALID,19.943,INVALID,360.0,VALID,0.0,
2019-04-13, 00:17:06,VALID,918.09,VALID,0.0,VALID,90.912,VALID,-0.005,VALID,19.907,INVALID,360.0,VALID,0.0,
2019-04-13, 00:18:06,VALID,918.103,VALID,0.0,VALID,91.463,VALID,-0.012,VALID,19.893,INVALID,360.0,VALID,0.0,
2019-04-13, 00:19:06,VALID,918.087,VALID,0.0,VALID,90.975,VALID,-0.02,VALID,19.882,INVALID,360.0,VALID,0.0,
2019-04-13, 00:20:06,VALID,918.076,VALID,0.0,VALID,91.258,VALID,-0.026,VALID,19.874,INVALID,360.0,VALID,0.0,
2019-04-13, 00:21:06,VALID,918.066,VALID,0.0,VALID,91.323,VALID,-0.026,VALID,19.872,INVALID,360.0,VALID,0.0,
2019-04-13, 00:22:06,VALID,918.069,VALID,0.0,VALID,91.198,VALID,-0.005,VALID,19.839,INVALID,360.0,VALID,0.0,
2019-04-13, 00:23:06,VALID,918.049,VALID,0.0,VALID,91.262,VALID,-0.019,VALID,19.851,INVALID,360.0,VALID,0.0,
2019-04-13, 00:24:06,VALID,918.045,VALID,0.0,VALID,92.494,VALID,-0.02,VALID,19.847,VALID,359.0,VALID,0.0,
2019-04-13, 00:25:06,VALID,917.999,VALID,0.0,VALID,92.111,VALID,-0.018,VALID,19.82,INVALID,360.0,VALID,0.0,
2019-04-13, 00:26:06,VALID,917.991,VALID,0.0,VALID,91.735,VALID,-0.015,VALID,19.858,INVALID,360.0,VALID,0.0,
2019-04-13, 00:27:06,VALID,917.995,VALID,0.0,VALID,92.096,VALID,-0.01,VALID,19.845,INVALID,360.0,VALID,0.0,
2019-04-13, 00:28:06,VALID,917.941,VALID,0.0,VALID,93.468,VALID,-0.019,VALID,19.834,INVALID,360.0,VALID,0.0,
2019-04-13, 00:29:06,VALID,917.925,VALID,0.0,VALID,93.119,VALID,0.008,VALID,19.801,INVALID,360.0,VALID,0.0,
2019-04-13, 00:30:06,VALID,917.911,VALID,0.0,VALID,92.7,VALID,-0.049,VALID,19.777,INVALID,360.0,VALID,0.0,
2019-04-13, 00:31:06,VALID,917.896,VALID,0.0,VALID,93.424,VALID,-0.055,VALID,19.779,INVALID,360.0,VALID,0.0,
2019-04-13, 00:32:06,VALID,917.901,VALID,0.0,VALID,93.168,VALID,-0.059,VALID,19.784,INVALID,360.0,VALID,0.0,
2019-04-13, 00:33:06,VALID,917.893,VALID,0.0,VALID,93.385,VALID,-0.052,VALID,19.819,INVALID,360.0,VALID,0.0,
2019-04-13, 00:34:06,VALID,917.897,VALID,0.0,VALID,94.448,VALID,-0.073,VALID,19.803,INVALID,360.0,VALID,0.0,
2019-04-13, 00:35:06,VALID,917.859,VALID,0.0,VALID,93.783,VALID,-0.067,VALID,19.731,INVALID,360.0,VALID,0.0,
2019-04-13, 00:36:06,VALID,917.863,VALID,0.0,VALID,91.338,VALID,-0.05,VALID,19.895,INVALID,360.0,VALID,0.0,
2019-04-13, 00:37:06,VALID,917.891,VALID,0.0,VALID,91.024,VALID,-0.064,VALID,20.071,INVALID,360.0,VALID,0.0,
2019-04-13, 00:38:06,VALID,917.871,VALID,0.0,VALID,91.939,VALID,-0.069,VALID,20.056,INVALID,360.0,VALID,0.0,
2019-04-13, 00:39:06,VALID,917.854,VALID,0.0,VALID,92.007,VALID,-0.062,VALID,19.991,INVALID,360.0,VALID,0.0,
2019-04-13, 00:40:06,VALID,917.85,VALID,0.0,VALID,90.52,VALID,-0.028,VALID,19.996,INVALID,360.0,VALID,0.0,
2019-04-13, 00:41:06,VALID,917.854,VALID,0.0,VALID,89.925,VALID,-0.042,VALID,20.059,INVALID,360.0,VALID,0.0,
2019-04-13, 00:42:06,VALID,917.832,VALID,0.0,VALID,89.29,VALID,-0.054,VALID,20.121,INVALID,360.0,VALID,0.0,
2019-04-13, 00:43:06,VALID,917.802,VALID,0.0,VALID,89.632,VALID,-0.024,VALID,20.127,INVALID,360.0,VALID,0.0,
2019-04-13, 00:44:06,VALID,917.786,VALID,0.0,VALID,89.214,VALID,-0.05,VALID,20.12,INVALID,360.0,VALID,0.0,
2019-04-13, 00:45:06,VALID,917.769,VALID,0.0,VALID,88.971,VALID,0.003,VALID,20.108,INVALID,360.0,VALID,0.0,
2019-04-13, 00:46:06,VALID,917.774,VALID,0.0,VALID,89.476,VALID,0.002,VALID,20.059,INVALID,360.0,VALID,0.0,
2019-04-13, 00:47:06,VALID,917.766,VALID,0.0,VALID,90.212,VALID,-0.003,VALID,19.994,INVALID,360.0,VALID,0.0,
2019-04-13, 00:48:06,VALID,917.751,VALID,0.0,VALID,90.302,VALID,0.003,VALID,19.946,INVALID,360.0,VALID,0.0,
2019-04-13, 00:49:06,VALID,917.754,VALID,0.0,VALID,89.904,VALID,-0.015,VALID,19.956,INVALID,360.0,VALID,0.0,
2019-04-13, 00:50:06,VALID,917.747,VALID,0.0,VALID,90.097,VALID,-0.001,VALID,19.967,INVALID,360.0,VALID,0.0,
2019-04-13, 00:51:06,VALID,917.744,VALID,0.0,VALID,89.654,VALID,0.006,VALID,19.977,INVALID,360.0,VALID,0.0,
2019-04-13, 00:52:06,VALID,917.743,VALID,0.0,VALID,89.271,VALID,-0.008,VALID,20.019,INVALID,360.0,VALID,0.0,
2019-04-13, 00:53:06,VALID,917.716,VALID,0.0,VALID,88.779,VALID,-0.001,VALID,20.088,INVALID,360.0,VALID,0.0,
2019-04-13, 00:54:06,VALID,917.728,VALID,0.0,VALID,88.634,VALID,-0.009,VALID,20.183,INVALID,360.0,VALID,0.0,
2019-04-13, 00:55:06,VALID,917.715,VALID,0.0,VALID,88.348,VALID,-0.019,VALID,20.187,INVALID,360.0,VALID,0.0,
2019-04-13, 00:56:06,VALID,917.701,VALID,0.0,VALID,88.423,VALID,0.001,VALID,20.198,INVALID,360.0,VALID,0.0,
2019-04-13, 00:57:06,VALID,917.686,VALID,0.0,VALID,88.367,VALID,-0.007,VALID,20.18,INVALID,360.0,VALID,0.0,
2019-04-13, 00:58:06,VALID,917.689,VALID,0.0,VALID,88.078,VALID,0.005,VALID,20.192,INVALID,360.0,VALID,0.0,
2019-04-13, 00:59:06,VALID,917.685,VALID,0.0,VALID,87.637,VALID,0.011,VALID,20.257,INVALID,360.0,VALID,0.0,
2019-04-13, 01:00:06,VALID,917.676,VALID,0.0,VALID,87.774,VALID,0.01,VALID,20.281,INVALID,360.0,VALID,0.0,
2019-04-13, 01:01:06,VALID,917.649,VALID,0.0,VALID,88.142,VALID,-0.004,VALID,20.262,INVALID,360.0,VALID,0.0,
2019-04-13, 01:02:06,VALID,917.644,VALID,0.0,VALID,88.058,VALID,0.001,VALID,20.17,INVALID,360.0,VALID,0.0,
2019-04-13, 01:03:06,VALID,917.621,VALID,0.0,VALID,88.617,VALID,0.01,VALID,20.202,INVALID,360.0,VALID,0.0,
2019-04-13, 01:04:06,VALID,917.619,VALID,0.0,VALID,89.519,VALID,0.004,VALID,20.163,INVALID,360.0,VALID,0.0,
2019-04-13, 01:05:06,VALID,917.624,VALID,0.0,VALID,89.763,VALID,0.013,VALID,20.123,INVALID,360.0,VALID,0.0,
2019-04-13, 01:06:06,VALID,917.623,VALID,0.0,VALID,89.309,VALID,0.018,VALID,20.116,INVALID,360.0,VALID,0.0,
2019-04-13, 01:07:06,VALID,917.608,VALID,0.0,VALID,89.783,VALID,0.007,VALID,20.108,INVALID,360.0,VALID,0.0,
2019-04-13, 01:08:06,VALID,917.593,VALID,0.0,VALID,90.398,VALID,0.029,VALID,20.099,INVALID,360.0,VALID,0.0,
2019-04-13, 01:09:06,VALID,917.577,VALID,0.0,VALID,90.376,VALID,0.027,VALID,20.066,INVALID,360.0,VALID,0.0,
2019-04-13, 01:10:06,VALID,917.568,VALID,0.0,VALID,90.874,VALID,0.023,VALID,20.057,INVALID,360.0,VALID,0.0,
2019-04-13, 01:11:06,VALID,917.547,VALID,0.0,VALID,91.562,VALID,0.03,VALID,19.995,INVALID,360.0,VALID,0.0,
2019-04-13, 01:12:06,VALID,917.518,VALID,0.0,VALID,91.136,VALID,0.004,VALID,19.94,INVALID,360.0,VALID,0.0,
2019-04-13, 01:13:06,VALID,917.511,VALID,0.0,VALID,91.495,VALID,0.004,VALID,19.895,INVALID,360.0,VALID,0.0,
2019-04-13, 01:14:06,VALID,917.505,VALID,0.0,VALID,92.131,VALID,-0.003,VALID,19.814,INVALID,360.0,VALID,0.0,
2019-04-13, 01:15:06,VALID,917.496,VALID,0.0,VALID,92.044,VALID,0.019,VALID,19.761,INVALID,360.0,VALID,0.0,
2019-04-13, 01:16:06,VALID,917.49,VALID,0.0,VALID,92.505,VALID,0.007,VALID,19.733,INVALID,360.0,VALID,0.0,
2019-04-13, 01:17:06,VALID,917.487,VALID,0.0,VALID,92.726,VALID,0.004,VALID,19.674,INVALID,360.0,VALID,0.0,
2019-04-13, 01:18:06,VALID,917.473,VALID,0.0,VALID,92.704,VALID,-0.002,VALID,19.617,INVALID,360.0,VALID,0.0,
2019-04-13, 01:19:06,VALID,917.46,VALID,0.0,VALID,92.796,VALID,0.028,VALID,19.559,INVALID,360.0,VALID,0.0,
2019-04-13, 01:20:06,VALID,917.447,VALID,0.0,VALID,92.778,VALID,0.001,VALID,19.484,INVALID,360.0,VALID,0.0,
2019-04-13, 01:21:06,VALID,917.431,VALID,0.0,VALID,92.525,VALID,0.013,VALID,19.476,INVALID,360.0,VALID,0.0,
2019-04-13, 01:22:06,VALID,917.426,VALID,0.0,VALID,93.106,VALID,-0.003,VALID,19.476,INVALID,360.0,VALID,0.0,
2019-04-13, 01:23:06,VALID,917.419,VALID,0.0,VALID,93.501,VALID,0.001,VALID,19.406,INVALID,360.0,VALID,0.0,
2019-04-13, 01:24:06,VALID,917.41,VALID,0.0,VALID,93.792,VALID,0.002,VALID,19.378,INVALID,360.0,VALID,0.0,
2019-04-13, 01:25:06,VALID,917.419,VALID,0.0,VALID,93.693,VALID,0.005,VALID,19.334,INVALID,360.0,VALID,0.0,
2019-04-13, 01:26:06,VALID,917.419,VALID,0.0,VALID,92.756,VALID,0.015,VALID,19.352,INVALID,360.0,VALID,0.0,
2019-04-13, 01:27:06,VALID,917.42,VALID,0.0,VALID,92.955,VALID,0.006,VALID,19.402,INVALID,360.0,VALID,0.0,
2019-04-13, 01:28:06,VALID,917.43,VALID,0.0,VALID,93.05,VALID,-0.007,VALID,19.415,INVALID,360.0,VALID,0.0,
2019-04-13, 01:29:06,VALID,917.416,VALID,0.0,VALID,93.181,VALID,-0.012,VALID,19.426,INVALID,360.0,VALID,0.0,
2019-04-13, 01:30:06,VALID,917.416,VALID,0.0,VALID,92.973,VALID,0.032,VALID,19.448,INVALID,360.0,VALID,0.0,
2019-04-13, 01:31:06,VALID,917.415,VALID,0.0,VALID,93.089,VALID,0.038,VALID,19.482,INVALID,360.0,VALID,0.0,
2019-04-13, 01:32:06,VALID,917.41,VALID,0.0,VALID,92.145,VALID,0.043,VALID,19.506,INVALID,360.0,VALID,0.0,
2019-04-13, 01:33:06,VALID,917.41,VALID,0.0,VALID,91.869,VALID,0.039,VALID,19.546,INVALID,360.0,VALID,0.0,
2019-04-13, 01:34:06,VALID,917.396,VALID,0.0,VALID,91.346,VALID,0.052,VALID,19.567,INVALID,360.0,VALID,0.0,
2019-04-13, 01:35:06,VALID,917.4,VALID,0.0,VALID,91.028,VALID,0.05,VALID,19.611,INVALID,360.0,VALID,0.0,
2019-04-13, 01:36:06,VALID,917.41,VALID,0.0,VALID,91.465,VALID,0.06,VALID,19.605,INVALID,360.0,VALID,0.0,
2019-04-13, 01:37:06,VALID,917.399,VALID,0.0,VALID,91.49,VALID,0.03,VALID,19.582,INVALID,360.0,VALID,0.0,
2019-04-13, 01:38:06,VALID,917.402,VALID,0.0,VALID,91.337,VALID,0.044,VALID,19.583,INVALID,360.0,VALID,0.0,
2019-04-13, 01:39:06,VALID,917.398,VALID,0.0,VALID,91.152,VALID,0.052,VALID,19.588,INVALID,360.0,VALID,0.0,
2019-04-13, 01:40:06,VALID,917.384,VALID,0.0,VALID,91.171,VALID,0.049,VALID,19.609,INVALID,360.0,VALID,0.0,
2019-04-13, 01:41:06,VALID,917.39,VALID,0.0,VALID,91.537,VALID,0.05,VALID,19.617,INVALID,360.0,VALID,0.0,
2019-04-13, 01:42:06,VALID,917.393,VALID,0.0,VALID,91.869,VALID,0.064,VALID,19.625,INVALID,360.0,VALID,0.0,
2019-04-13, 01:43:06,VALID,917.372,VALID,0.0,VALID,92.277,VALID,0.042,VALID,19.626,INVALID,360.0,VALID,0.0,
2019-04-13, 01:44:06,VALID,917.371,VALID,0.0,VALID,92.379,VALID,0.041,VALID,19.615,INVALID,360.0,VALID,0.0,
2019-04-13, 01:45:06,VALID,917.352,VALID,0.0,VALID,91.684,VALID,0.007,VALID,19.581,INVALID,360.0,VALID,0.0,
2019-04-13, 01:46:06,VALID,917.354,VALID,0.0,VALID,90.928,VALID,-0.023,VALID,19.567,INVALID,360.0,VALID,0.0,
2019-04-13, 01:47:06,VALID,917.359,VALID,0.0,VALID,90.669,VALID,-0.003,VALID,19.594,INVALID,360.0,VALID,0.0,
2019-04-13, 01:48:06,VALID,917.36,VALID,0.0,VALID,91.38,VALID,-0.001,VALID,19.638,INVALID,360.0,VALID,0.0,
2019-04-13, 01:49:06,VALID,917.341,VALID,0.0,VALID,91.975,VALID,-0.008,VALID,19.646,INVALID,360.0,VALID,0.0,
2019-04-13, 01:50:06,VALID,917.335,VALID,0.0,VALID,91.819,VALID,-0.004,VALID,19.622,INVALID,360.0,VALID,0.0,
2019-04-13, 01:51:06,VALID,917.33,VALID,0.0,VALID,92.908,VALID,0.009,VALID,19.546,INVALID,360.0,VALID,0.0,
2019-04-13, 01:52:06,VALID,917.353,VALID,0.0,VALID,93.557,VALID,-0.017,VALID,19.442,INVALID,360.0,VALID,0.0,
2019-04-13, 01:53:06,VALID,917.348,VALID,0.0,VALID,93.748,VALID,0.008,VALID,19.361,INVALID,360.0,VALID,0.0,
2019-04-13, 01:54:06,VALID,917.338,VALID,0.0,VALID,93.69,VALID,-0.01,VALID,19.301,INVALID,360.0,VALID,0.0,
2019-04-13, 01:55:06,VALID,917.338,VALID,0.0,VALID,93.895,VALID,-0.0,VALID,19.26,INVALID,360.0,VALID,0.0,
2019-04-13, 01:56:06,VALID,917.353,VALID,0.0,VALID,93.893,VALID,-0.012,VALID,19.175,INVALID,360.0,VALID,0.0,
2019-04-13, 01:57:06,VALID,917.351,VALID,0.0,VALID,92.932,VALID,0.008,VALID,19.174,INVALID,360.0,VALID,0.0,
2019-04-13, 01:58:06,VALID,917.363,VALID,0.0,VALID,92.412,VALID,-0.002,VALID,19.32,INVALID,360.0,VALID,0.0,
2019-04-13, 01:59:06,VALID,917.362,VALID,0.0,VALID,92.046,VALID,-0.008,VALID,19.372,INVALID,360.0,VALID,0.0,
2019-04-13, 02:00:06,VALID,917.363,VALID,0.0,VALID,91.42,VALID,-0.018,VALID,19.434,INVALID,360.0,VALID,0.0,
2019-04-13, 02:01:06,VALID,917.375,VALID,0.0,VALID,91.533,VALID,-0.013,VALID,19.464,INVALID,360.0,VALID,0.0,
2019-04-13, 02:02:06,VALID,917.384,VALID,0.0,VALID,91.736,VALID,-0.018,VALID,19.463,INVALID,360.0,VALID,0.0,
2019-04-13, 02:03:06,VALID,917.404,VALID,0.0,VALID,90.913,VALID,-0.018,VALID,19.474,INVALID,360.0,VALID,0.0,
2019-04-13, 02:04:06,VALID,917.398,VALID,0.0,VALID,91.48,VALID,-0.001,VALID,19.483,INVALID,360.0,VALID,0.0,
2019-04-13, 02:05:06,VALID,917.416,VALID,0.0,VALID,91.72,VALID,-0.015,VALID,19.44,INVALID,360.0,VALID,0.0,
2019-04-13, 02:06:06,VALID,917.414,VALID,0.0,VALID,91.416,VALID,-0.0,VALID,19.424,INVALID,360.0,VALID,0.0,
2019-04-13, 02:07:06,VALID,917.414,VALID,0.0,VALID,91.962,VALID,-0.018,VALID,19.424,INVALID,360.0,VALID,0.0,
2019-04-13, 02:08:06,VALID,917.417,VALID,0.0,VALID,92.564,VALID,-0.014,VALID,19.378,INVALID,360.0,VALID,0.0,
2019-04-13, 02:09:06,VALID,917.439,VALID,0.0,VALID,93.123,VALID,-0.018,VALID,19.299,INVALID,360.0,VALID,0.0,
2019-04-13, 02:10:06,VALID,917.438,VALID,0.0,VALID,92.927,VALID,-0.003,VALID,19.222,INVALID,360.0,VALID,0.0,
2019-04-13, 02:11:06,VALID,917.443,VALID,0.0,VALID,92.819,VALID,-0.008,VALID,19.172,INVALID,360.0,VALID,0.0,
2019-04-13, 02:12:06,VALID,917.443,VALID,0.0,VALID,92.835,VALID,-0.005,VALID,19.141,INVALID,360.0,VALID,0.0,
2019-04-13, 02:13:06,VALID,917.451,VALID,0.0,VALID,92.804,VALID,0.003,VALID,19.13,INVALID,360.0,VALID,0.0,
2019-04-13, 02:14:06,VALID,917.441,VALID,0.0,VALID,92.908,VALID,-0.009,VALID,19.115,INVALID,360.0,VALID,0.0,
2019-04-13, 02:15:06,VALID,917.446,VALID,0.0,VALID,93.116,VALID,0.04,VALID,19.093,INVALID,360.0,VALID,0.0,
2019-04-13, 02:16:06,VALID,917.436,VALID,0.0,VALID,93.322,VALID,0.029,VALID,19.06,INVALID,360.0,VALID,0.0,
2019-04-13, 02:17:06,VALID,917.424,VALID,0.0,VALID,93.693,VALID,0.04,VALID,19.046,INVALID,360.0,VALID,0.0,
2019-04-13, 02:18:06,VALID,917.418,VALID,0.0,VALID,94.335,VALID,0.012,VALID,19.015,INVALID,360.0,VALID,0.0,
2019-04-13, 02:19:06,VALID,917.405,VALID,0.0,VALID,94.639,VALID,0.026,VALID,18.946,INVALID,360.0,VALID,0.0,
2019-04-13, 02:20:06,VALID,917.415,VALID,0.0,VALID,94.763,VALID,0.026,VALID,18.904,INVALID,360.0,VALID,0.0,
2019-04-13, 02:21:06,VALID,917.379,VALID,0.0,VALID,94.751,VALID,0.036,VALID,18.894,INVALID,360.0,VALID,0.0,
2019-04-13, 02:22:06,VALID,917.368,VALID,0.0,VALID,94.62,VALID,0.033,VALID,18.892,INVALID,360.0,VALID,0.0,
2019-04-13, 02:23:06,VALID,917.376,VALID,0.0,VALID,94.525,VALID,0.034,VALID,18.918,INVALID,360.0,VALID,0.0,
2019-04-13, 02:24:06,VALID,917.358,VALID,0.0,VALID,94.578,VALID,0.032,VALID,18.929,INVALID,360.0,VALID,0.0,
2019-04-13, 02:25:06,VALID,917.354,VALID,0.0,VALID,94.706,VALID,0.036,VALID,18.93,INVALID,360.0,VALID,0.0,
2019-04-13, 02:26:06,VALID,917.35,VALID,0.0,VALID,94.7,VALID,0.048,VALID,18.927,INVALID,360.0,VALID,0.0,
2019-04-13, 02:27:06,VALID,917.338,VALID,0.0,VALID,94.579,VALID,0.043,VALID,18.925,INVALID,360.0,VALID,0.0,
2019-04-13, 02:28:06,VALID,917.314,VALID,0.0,VALID,94.306,VALID,0.04,VALID,18.959,INVALID,360.0,VALID,0.0,
2019-04-13, 02:29:06,VALID,917.319,VALID,0.0,VALID,94.55,VALID,0.03,VALID,18.964,INVALID,360.0,VALID,0.0,
2019-04-13, 02:30:06,VALID,917.287,VALID,0.0,VALID,94.125,VALID,-0.02,VALID,18.959,INVALID,360.0,VALID,0.0,
2019-04-13, 02:31:06,VALID,917.291,VALID,0.0,VALID,94.131,VALID,-0.01,VALID,18.957,INVALID,360.0,VALID,0.0,
2019-04-13, 02:32:06,VALID,917.265,VALID,0.0,VALID,94.391,VALID,0.012,VALID,18.926,INVALID,360.0,VALID,0.0,
2019-04-13, 02:33:06,VALID,917.264,VALID,0.0,VALID,94.492,VALID,-0.005,VALID,18.905,INVALID,360.0,VALID,0.0,
2019-04-13, 02:34:06,VALID,917.249,VALID,0.0,VALID,94.734,VALID,0.009,VALID,18.879,INVALID,360.0,VALID,0.0,
2019-04-13, 02:35:06,VALID,917.248,VALID,0.0,VALID,94.893,VALID,0.004,VALID,18.867,INVALID,360.0,VALID,0.0,
2019-04-13, 02:36:06,VALID,917.233,VALID,0.0,VALID,94.538,VALID,0.003,VALID,18.933,INVALID,360.0,VALID,0.0,
2019-04-13, 02:37:06,VALID,917.233,VALID,0.0,VALID,94.398,VALID,0.003,VALID,18.991,INVALID,360.0,VALID,0.0,
2019-04-13, 02:38:06,VALID,917.237,VALID,0.0,VALID,94.332,VALID,-0.002,VALID,18.97,INVALID,360.0,VALID,0.0,
2019-04-13, 02:39:06,VALID,917.238,VALID,0.0,VALID,94.385,VALID,0.002,VALID,18.955,INVALID,360.0,VALID,0.0,
2019-04-13, 02:40:06,VALID,917.239,VALID,0.0,VALID,94.437,VALID,-0.002,VALID,18.906,INVALID,360.0,VALID,0.0,
2019-04-13, 02:41:06,VALID,917.228,VALID,0.0,VALID,94.67,VALID,-0.001,VALID,18.816,INVALID,360.0,VALID,0.0,
2019-04-13, 02:42:06,VALID,917.206,VALID,0.0,VALID,94.835,VALID,-0.002,VALID,18.772,INVALID,360.0,VALID,0.0,
2019-04-13, 02:43:06,VALID,917.202,VALID,0.0,VALID,94.991,VALID,-0.008,VALID,18.792,INVALID,360.0,VALID,0.0,
2019-04-13, 02:44:06,VALID,917.188,VALID,0.0,VALID,94.826,VALID,-0.003,VALID,18.856,INVALID,360.0,VALID,0.0,
2019-04-13, 02:45:06,VALID,917.169,VALID,0.0,VALID,94.583,VALID,0.06,VALID,18.971,INVALID,360.0,VALID,0.0,
2019-04-13, 02:46:06,VALID,917.138,VALID,0.0,VALID,94.103,VALID,0.05,VALID,19.058,INVALID,360.0,VALID,0.0,
2019-04-13, 02:47:06,VALID,917.143,VALID,0.0,VALID,93.699,VALID,0.046,VALID,19.094,INVALID,360.0,VALID,0.0,
2019-04-13, 02:48:06,VALID,917.143,VALID,0.0,VALID,93.555,VALID,0.045,VALID,19.172,INVALID,360.0,VALID,0.0,
2019-04-13, 02:49:06,VALID,917.147,VALID,0.0,VALID,93.182,VALID,0.047,VALID,19.186,INVALID,360.0,VALID,0.0,
2019-04-13, 02:50:06,VALID,917.157,VALID,0.0,VALID,93.162,VALID,0.034,VALID,19.183,INVALID,360.0,VALID,0.0,
2019-04-13, 02:51:06,VALID,917.162,VALID,0.0,VALID,92.899,VALID,0.034,VALID,19.229,INVALID,360.0,VALID,0.0,
2019-04-13, 02:52:06,VALID,917.182,VALID,0.0,VALID,92.681,VALID,0.041,VALID,19.25,INVALID,360.0,VALID,0.0,
2019-04-13, 02:53:06,VALID,917.192,VALID,0.0,VALID,92.747,VALID,0.048,VALID,19.241,INVALID,360.0,VALID,0.0,
2019-04-13, 02:54:06,VALID,917.205,VALID,0.0,VALID,92.788,VALID,0.054,VALID,19.219,INVALID,360.0,VALID,0.0,
2019-04-13, 02:55:06,VALID,917.226,VALID,0.0,VALID,92.89,VALID,0.043,VALID,19.191,INVALID,360.0,VALID,0.0,
2019-04-13, 02:56:06,VALID,917.229,VALID,0.0,VALID,92.86,VALID,0.052,VALID,19.186,INVALID,360.0,VALID,0.0,
2019-04-13, 02:57:06,VALID,917.229,VALID,0.0,VALID,92.721,VALID,0.038,VALID,19.208,INVALID,360.0,VALID,0.0,
2019-04-13, 02:58:06,VALID,917.234,VALID,0.0,VALID,92.435,VALID,0.037,VALID,19.24,INVALID,360.0,VALID,0.0,
2019-04-13, 02:59:06,VALID,917.24,VALID,0.0,VALID,92.205,VALID,0.03,VALID,19.274,INVALID,360.0,VALID,0.0,
2019-04-13, 03:00:06,VALID,917.249,VALID,0.0,VALID,91.997,VALID,0.024,VALID,19.304,INVALID,360.0,VALID,0.0,
2019-04-13, 03:01:06,VALID,917.253,VALID,0.0,VALID,91.726,VALID,0.023,VALID,19.346,INVALID,360.0,VALID,0.0,
2019-04-13, 03:02:06,VALID,917.257,VALID,0.0,VALID,91.463,VALID,0.015,VALID,19.383,INVALID,360.0,VALID,0.0,
2019-04-13, 03:03:06,VALID,917.254,VALID,0.0,VALID,91.106,VALID,0.024,VALID,19.457,INVALID,360.0,VALID,0.0,
2019-04-13, 03:04:06,VALID,917.258,VALID,0.0,VALID,91.056,VALID,0.03,VALID,19.483,INVALID,360.0,VALID,0.0,
2019-04-13, 03:05:06,VALID,917.253,VALID,0.0,VALID,90.838,VALID,0.043,VALID,19.495,INVALID,360.0,VALID,0.0,
2019-04-13, 03:06:06,VALID,917.245,VALID,0.0,VALID,90.744,VALID,0.033,VALID,19.517,INVALID,360.0,VALID,0.0,
2019-04-13, 03:07:06,VALID,917.227,VALID,0.0,VALID,91.25,VALID,0.032,VALID,19.392,INVALID,360.0,VALID,0.0,
2019-04-13, 03:08:06,VALID,917.26,VALID,0.0,VALID,91.469,VALID,0.024,VALID,19.361,INVALID,360.0,VALID,0.0,
2019-04-13, 03:09:06,VALID,917.254,VALID,0.0,VALID,91.661,VALID,0.04,VALID,19.361,INVALID,360.0,VALID,0.0,
2019-04-13, 03:10:06,VALID,917.254,VALID,0.0,VALID,91.798,VALID,0.024,VALID,19.34,INVALID,360.0,VALID,0.0,
2019-04-13, 03:11:06,VALID,917.236,VALID,0.0,VALID,91.809,VALID,0.02,VALID,19.364,INVALID,360.0,VALID,0.0,
2019-04-13, 03:12:06,VALID,917.237,VALID,0.0,VALID,90.908,VALID,0.009,VALID,19.436,INVALID,360.0,VALID,0.0,
2019-04-13, 03:13:06,VALID,917.211,VALID,0.0,VALID,90.726,VALID,0.019,VALID,19.495,INVALID,360.0,VALID,0.0,
2019-04-13, 03:14:06,VALID,917.195,VALID,0.0,VALID,90.537,VALID,0.013,VALID,19.518,INVALID,360.0,VALID,0.0,
2019-04-13, 03:15:06,VALID,917.185,VALID,0.0,VALID,90.315,VALID,0.026,VALID,19.538,INVALID,360.0,VALID,0.0,
2019-04-13, 03:16:06,VALID,917.166,VALID,0.0,VALID,89.98,VALID,0.03,VALID,19.581,INVALID,360.0,VALID,0.0,
2019-04-13, 03:17:06,VALID,917.167,VALID,0.0,VALID,89.959,VALID,0.019,VALID,19.574,INVALID,360.0,VALID,0.0,
2019-04-13, 03:18:06,VALID,917.162,VALID,0.0,VALID,89.818,VALID,0.013,VALID,19.621,INVALID,360.0,VALID,0.0,
2019-04-13, 03:19:06,VALID,917.17,VALID,0.0,VALID,89.871,VALID,0.017,VALID,19.628,INVALID,360.0,VALID,0.0,
2019-04-13, 03:20:06,VALID,917.177,VALID,0.0,VALID,90.037,VALID,0.029,VALID,19.597,INVALID,360.0,VALID,0.0,
2019-04-13, 03:21:06,VALID,917.194,VALID,0.0,VALID,90.241,VALID,0.013,VALID,19.547,INVALID,360.0,VALID,0.0,
2019-04-13, 03:22:06,VALID,917.215,VALID,0.0,VALID,90.662,VALID,0.029,VALID,19.465,INVALID,360.0,VALID,0.0,
2019-04-13, 03:23:06,VALID,917.231,VALID,0.0,VALID,90.912,VALID,0.029,VALID,19.395,INVALID,360.0,VALID,0.0,
2019-04-13, 03:24:06,VALID,917.248,VALID,0.0,VALID,91.01,VALID,0.017,VALID,19.421,INVALID,360.0,VALID,0.0,
2019-04-13, 03:25:06,VALID,917.228,VALID,0.0,VALID,90.833,VALID,0.017,VALID,19.495,INVALID,360.0,VALID,0.0,
2019-04-13, 03:26:06,VALID,917.231,VALID,0.0,VALID,90.684,VALID,0.013,VALID,19.539,INVALID,360.0,VALID,0.0,
2019-04-13, 03:27:06,VALID,917.213,VALID,0.0,VALID,90.715,VALID,0.014,VALID,19.544,INVALID,360.0,VALID,0.0,
2019-04-13, 03:28:06,VALID,917.204,VALID,0.0,VALID,90.797,VALID,0.023,VALID,19.507,INVALID,360.0,VALID,0.0,
2019-04-13, 03:29:06,VALID,917.188,VALID,0.0,VALID,90.971,VALID,0.017,VALID,19.484,INVALID,360.0,VALID,0.0,
2019-04-13, 03:30:06,VALID,917.183,VALID,0.0,VALID,90.967,VALID,0.025,VALID,19.503,INVALID,360.0,VALID,0.0,
2019-04-13, 03:31:06,VALID,917.173,VALID,0.0,VALID,91.02,VALID,0.034,VALID,19.496,INVALID,360.0,VALID,0.0,
2019-04-13, 03:32:06,VALID,917.167,VALID,0.0,VALID,90.901,VALID,0.028,VALID,19.483,INVALID,360.0,VALID,0.0,
2019-04-13, 03:33:06,VALID,917.156,VALID,0.0,VALID,90.88,VALID,0.037,VALID,19.478,INVALID,360.0,VALID,0.0,
2019-04-13, 03:34:06,VALID,917.153,VALID,0.0,VALID,90.691,VALID,0.038,VALID,19.493,INVALID,360.0,VALID,0.0,
2019-04-13, 03:35:06,VALID,917.143,VALID,0.0,VALID,90.7,VALID,0.03,VALID,19.51,INVALID,360.0,VALID,0.0,
2019-04-13, 03:36:06,VALID,917.146,VALID,0.0,VALID,90.77,VALID,0.038,VALID,19.497,INVALID,360.0,VALID,0.0,
2019-04-13, 03:37:06,VALID,917.136,VALID,0.0,VALID,91.579,VALID,0.043,VALID,19.394,INVALID,360.0,VALID,0.0,
2019-04-13, 03:38:06,VALID,917.123,VALID,0.0,VALID,91.571,VALID,0.048,VALID,19.336,INVALID,360.0,VALID,0.0,